Location: Berua Church
(35.0423°N, 88.5987°W)
Time: 01:55:33
(UTC+00:00)

CORIOLIS - Pass Details

Date: 08 December 2019
Orbit: 817 x 839 km, 98.7° (Epoch: 28 January)

Event Time Altitude Azimuth Distance (km) Brightness Sun altitude
Rises 23:16:05 0° 156° (SSE) 3,372 7.3 -7.0°
Reaches altitude 10° 23:18:27 10° 153° (SSE) 2,443 6.6 -7.5°
Maximum altitude 23:23:47 62° 74° (ENE) 942 4.2 -8.5°
Drops below altitude 10° 23:29:10 10° 354° (N) 2,460 6.5 -9.5°
Sets 23:31:33 0° 352° (N) 3,398 7.2 -10.0°
